Orbital Elements at Epoch 2459200.5 (2020-Dec-17.0) TDB
Reference: JPL 30 (heliocentric ecliptic J2000)
Element | Value | Uncertainty (1-sigma) | Units |
e | .05275294413587978 | 6.2686e-08 | |
a | 3.15579237043517 | 2.9368e-08 | au |
q | 2.989315031813168 | 2.0258e-07 | au |
i | 9.67053452117392 | 5.3556e-06 | deg |
node | 275.7380062752904 | 3.9316e-05 | deg |
peri | 239.5900625442599 | 6.4637e-05 | deg |
M | 1.64832570700098 | 4.9788e-05 | deg |
tp | 2459191.124345588916 (2020-Dec-07.62434559) | 0.00028318 | TDB |
period | 2047.67514918586 5.61 | 2.8584e-05 7.826e-08 | d yr |
n | .175809136592361 | 2.4542e-09 | deg/d |
Q | 3.322269709057173 | 3.0918e-08 | au |
|
| | Orbit Determination Parameters
Additional Information
|